KUIPER-00029

导读 | 星芒AI

KUIPER-00029 是一颗小型近地卫星,属于低轨道卫星系统的一部分,主要用于地球观测和通信中继。该卫星由 KUIPER 项目部署,旨在增强全球互联网覆盖和遥感数据采集能力。其轨道高度约 550 公里,运行周期约为 95 分钟。KUIPER-00029 采用模块化设计,具备高精度传感器和数据传输能力,支持实时图像回传和环境监测。该卫星于 2024 年成功发射,目前运行稳定,为科研和商业应用提供重要支持。

基本信息
目录编号:
63742
目录名称:
KUIPER-00029
国际标识:
2025-088U
轨道中心:
EARTH
卫星名称:
KUIPER-00029
卫星全名:
KUIPER-00029
卫星状态:
在轨 (已飞行309 天)
发射日期:
2025-04-28 UTC
国别 :
美国 (US)
星等 :
--
轨道信息
数据来源 国际轨道数据
星历时间: 2026-03-02T18:08:19+0800
14小时前
查看轨道信息
半长轴: 6996.187km
偏心率: 0.0000722
轨道倾角: 51.902°
近地点辐角 102.094°
升交点赤经 122.901°
平近点角 258.010°
近地点: 617.544km
远地点: 618.556km
周期: 97.063分钟
每日圈数: 14.835791
详细信息
使用方式:
暂无
2D轨道图
3D轨道图
轨道高度分析图
轨道倾角分析图
轨道综合分析图
查看轨道综合分析图